[[{"header":{"parameterUnit":"m.s-1","parameterCategory":1,"la1":30.2991,"la2":30.254,"lo1":-89.0895,"lo2":-89.0444,"dy":0.0017,"dx":0.0017,"nx":28,"ny":28,"refTime":"2024-08-09T09:00:00:Z","depth":0,"parameterNumber":2,"parameterNumberName":"U-component_of_WINDS"},"data":[0,0,0,0,0,0,0,0,0,0,0,0,0,0,0,0,0,0,0,0,0,0,0,0,0,0,0,0,0,0,0,0,0,0,0,0,0,0,0,0,0,0,0,0,0,0,0,0,0,0,0,0,0,0,0,0,0,0,3.1087,3.1087,0,3.1136,3.1137,3.1137,3.1046,3.1043,3.104,3.1038,3.1087,3.1091,3.1095,0,0,0,0,0,0,0,0,0,0,0,0,0,3.0911,3.0915,3.1087,3.1087,3.1088,3.1136,3.1137,3.1137,3.1047,3.1043,3.104,3.1036,3.1085,3.109,3.1095,0,0,0,0,0,0,0,0,0,0,0,0,0,3.0977,3.0916,3.1087,3.1049,3.1046,3.1136,3.1137,3.1137,3.1048,3.1043,3.1039,3.1034,3.1084,3.109,3.1096,3.1225,0,0,3.1115,3.1117,0,0,0,0,0,0,0,0,3.0973,3.0983,3.1054,3.1051,3.1048,3.108,3.1093,3.1167,3.1049,3.1047,3.1037,3.1032,3.1088,3.1094,3.1113,3.1227,3.1229,3.1115,3.1119,3.1122,3.1123,0,0,0,0,0,0,0,3.0969,3.0981,3.1106,3.1055,3.1052,3.1028,3.1032,3.1106,3.1092,3.1047,3.104,3.1047,3.1086,3.1107,3.1113,3.123,3.1115,3.1121,3.1124,3.1127,3.1448,3.1453,0,0,0,0,0,0,3.0969,3.0977,3.1104,3.1108,3.0999,3.1035,3.104,3.1075,3.1091,3.1089,3.1051,3.1043,3.1099,3.1106,3.1115,3.1264,3.1122,3.1127,3.1131,3.1443,3.1449,3.1454,0,0,0,0,0,0,3.0966,3.0981,3.1102,3.1041,3.1054,3.1043,3.1083,3.1078,3.1099,3.1095,3.1091,3.1076,3.1095,3.1106,3.1197,3.1264,3.113,3.1136,3.1438,3.1445,3.1452,3.1565,0,0,0,0,0,0,3.0961,3.0981,3.103,3.1043,3.1058,3.1186,3.1087,3.1082,3.111,3.11,3.1117,3.1115,3.1093,3.1188,3.1203,3.127,3.1141,3.1431,3.1441,3.1449,3.1555,3.1575,3.1592,0,0,0,0,0,3.0955,3.1061,3.1033,3.1049,3.112,3.119,3.1198,3.1171,3.1116,3.1165,3.1162,3.1115,3.1255,3.1199,3.1215,3.1284,3.1427,3.1438,3.1449,3.1546,3.1571,3.1591,0,0,0,0,0,0,3.1057,3.1062,3.1031,3.1144,3.1167,3.1174,3.1235,3.1198,3.1237,3.1225,3.1189,3.1193,3.1291,3.1297,3.1234,3.1408,3.1332,3.1346,3.14,3.1424,3.1442,3.1437,3.1146,0,0,0,0,0,3.1093,3.1149,3.115,3.125,3.1263,3.1247,3.1277,3.1253,3.1275,3.1284,3.1288,3.131,3.1359,3.1392,3.1437,3.1556,3.1556,3.1612,3.163,3.1645,3.1658,3.1718,3.1741,3.149,3.149,3.149,0,0,3.1167,3.1176,3.1214,3.127,3.1285,3.1343,3.1256,3.1322,3.1364,3.1294,3.1379,3.1383,3.1406,3.1511,3.1557,3.1518,3.1727,3.1659,3.1671,3.1675,3.1731,3.1755,3.1776,3.1497,3.1496,3.1495,0,0,3.133,3.1345,3.1427,3.1444,3.1467,3.1456,3.1476,3.1489,3.1488,3.1573,3.1521,3.1571,3.1657,3.1674,3.1694,3.1862,3.1819,3.1878,3.1974,3.2033,3.2053,3.207,3.2127,3.2148,3.1891,3.1891,3.1891,0,3.1419,3.1505,3.1474,3.1543,3.1568,3.1508,3.159,3.1607,3.1645,3.1662,3.1619,3.1723,3.1735,3.1841,3.1882,3.1902,3.1921,3.1875,3.2053,3.207,3.2085,3.2139,3.2161,3.1898,3.1897,3.1896,3.1896,0,3.1611,3.1672,3.1735,3.1772,3.1804,3.188,3.1859,3.1896,3.1869,3.1862,3.1948,3.196,3.2004,3.2029,3.2004,3.2131,3.2106,3.2059,3.198,3.2116,3.2166,3.2187,3.1908,3.1905,3.1903,3.1901,0,0,3.184,3.1858,3.1881,3.1896,3.1917,3.1962,3.2034,3.2078,3.2108,3.2136,3.2193,3.2266,3.2222,3.2245,3.2221,3.2274,3.2402,3.2219,3.2219,3.225,3.2539,3.2572,3.2597,3.2375,3.2379,3.2382,3.2536,0,3.2,3.2123,3.2097,3.2218,3.2271,3.2214,3.2276,3.2295,3.229,3.2334,3.2328,3.2379,3.2319,3.2331,3.2381,3.2376,3.2459,3.2365,3.2425,3.2428,3.2419,3.2624,3.266,3.2805,3.2556,3.2559,3.2561,0,3.2203,3.2237,3.2363,3.2372,3.2394,3.245,3.2487,3.253,3.255,3.2542,3.2567,3.2533,3.2602,3.2526,3.2619,3.2555,3.2579,3.258,3.2585,3.2587,3.2501,3.2629,3.2851,3.2871,3.2592,3.259,3.2588,0,3.2353,3.2431,3.2515,3.253,3.2544,3.2584,3.2592,3.2607,3.2634,3.2666,3.2683,3.2723,3.2744,3.2775,3.2752,3.2699,3.2848,3.277,3.2842,3.2842,3.2874,3.2872,3.31,3.2894,3.2894,3.2893,3.2893,0,3.2533,3.2611,3.2582,3.2634,3.2719,3.2688,3.2773,3.2774,3.2788,3.2837,3.2791,3.2839,3.2807,3.2851,3.2834,3.2912,3.2923,3.2917,3.2911,3.292,3.292,3.2932,3.2921,3.2899,3.2898,3.2897,3.2896,0,3.2714,3.2698,3.2786,3.2792,3.2795,3.2857,3.2862,3.2909,3.2901,3.2964,3.2977,3.2963,3.3013,3.2994,3.3047,3.3035,3.3134,3.3116,3.3127,3.3121,3.3193,3.3186,3.3435,3.3465,3.3243,3.3245,3.3247,0,3.2828,3.2887,3.2899,3.2929,3.294,3.2989,3.3016,3.2987,3.3017,3.3042,3.3086,3.3131,3.3166,3.3248,3.3242,3.3281,3.3262,3.3347,3.3268,3.3274,3.326,3.3255,3.326,3.3362,3.3365,3.3367,3.3369,0,3.3032,3.302,3.3061,3.3099,3.3132,3.3161,3.3185,3.3212,3.3184,3.322,3.327,3.3297,3.335,3.3395,3.343,3.3436,3.3397,3.3394,3.3412,3.342,3.3422,3.3419,3.3167,3.3388,3.3386,3.3384,3.3383,3.3382,3.3181,3.3229,3.3244,3.329,3.3305,3.3329,3.3372,3.3369,3.341,3.3451,3.3432,3.3489,3.3505,3.3547,3.3559,3.3603,3.3569,3.3596,3.3603,3.3609,3.3617,3.3418,3.3609,3.3609,3.3608,3.3608,3.3607,0,3.3379,3.3385,3.3429,3.3463,3.3499,3.346,3.3484,3.3516,3.3567,3.3585,3.362,3.3676,3.3719,3.3717,3.3756,3.3791,3.3774,3.3802,3.3797,3.3799,3.3646,3.3625,3.3815,3.3815,3.3815,3.3815,3.3815,3.3815,3.3486,3.3564,3.3555,3.364,3.3646,3.3701,3.3718,3.3738,3.3752,3.3817,3.3852,3.385,3.3859,3.3898,3.3935,3.3933,3.3948,3.3983,3.3974,3.3831,3.381,3.379,3.377,3.3987,3.3987,3.4122,3.4124,3.4125]},{"header":{"parameterUnit":"m.s-1","parameterCategory":1,"la1":30.2991,"la2":30.254,"lo1":-89.0895,"lo2":-89.0444,"dy":0.0017,"dx":0.0017,"nx":28,"ny":28,"refTime":"2024-08-09T09:00:00:Z","depth":0,"parameterNumber":3,"parameterNumberName":"V-component_of_WINDS"},"data":[0,0,0,0,0,0,0,0,0,0,0,0,0,0,0,0,0,0,0,0,0,0,0,0,0,0,0,0,0,0,0,0,0,0,0,0,0,0,0,0,0,0,0,0,0,0,0,0,0,0,0,0,0,0,0,0,0,0,0.8332,0.8331,0,0.8288,0.8288,0.8287,0.8219,0.8217,0.8216,0.8215,0.8172,0.8172,0.8172,0,0,0,0,0,0,0,0,0,0,0,0,0,0.8357,0.8357,0.8332,0.8331,0.8331,0.8288,0.8288,0.8287,0.8219,0.8217,0.8216,0.8214,0.8172,0.8172,0.8172,0,0,0,0,0,0,0,0,0,0,0,0,0,0.8333,0.8357,0.8332,0.8292,0.8288,0.8288,0.8288,0.8287,0.8219,0.8217,0.8215,0.8214,0.8172,0.8172,0.8172,0.8209,0,0,0.8172,0.8172,0,0,0,0,0,0,0,0,0.8334,0.8332,0.8298,0.8294,0.829,0.8257,0.8281,0.8261,0.822,0.8245,0.8215,0.8213,0.8202,0.8199,0.8195,0.8207,0.8206,0.8172,0.8172,0.8172,0.8172,0,0,0,0,0,0,0,0.8336,0.8334,0.8315,0.8298,0.8293,0.8276,0.827,0.8277,0.8235,0.8243,0.8238,0.8233,0.8199,0.8195,0.8194,0.8205,0.8172,0.8172,0.8172,0.8172,0.8243,0.8245,0,0,0,0,0,0,0.8344,0.8336,0.8316,0.8313,0.8308,0.8277,0.8271,0.8269,0.8234,0.8227,0.8235,0.823,0.8196,0.8194,0.8192,0.8232,0.8172,0.8172,0.8172,0.8241,0.8243,0.8245,0,0,0,0,0,0,0.8344,0.8343,0.8318,0.8323,0.8318,0.8278,0.8277,0.8269,0.8265,0.8228,0.8221,0.8239,0.8195,0.8192,0.8205,0.8229,0.8172,0.8172,0.8239,0.8242,0.8244,0.8312,0,0,0,0,0,0,0.8345,0.8343,0.8357,0.8324,0.8318,0.8332,0.8279,0.827,0.8265,0.8259,0.823,0.8223,0.8193,0.8205,0.8205,0.8228,0.8172,0.8236,0.824,0.8243,0.8308,0.8317,0.8325,0,0,0,0,0,0.8347,0.8379,0.8358,0.8356,0.8335,0.8333,0.833,0.8294,0.8268,0.8281,0.8257,0.8224,0.8227,0.8207,0.8206,0.823,0.8235,0.8239,0.8243,0.8304,0.8315,0.8325,0,0,0,0,0,0,0.8418,0.8374,0.835,0.8373,0.8357,0.8322,0.8337,0.8308,0.83,0.8294,0.825,0.8244,0.8263,0.8248,0.8227,0.8263,0.8225,0.823,0.8272,0.8283,0.8291,0.8294,0.8172,0,0,0,0,0,0.8436,0.8437,0.8399,0.8423,0.8416,0.8378,0.8376,0.835,0.8332,0.8325,0.8302,0.8286,0.8283,0.8282,0.8277,0.8305,0.8297,0.8321,0.833,0.8337,0.8341,0.8353,0.8362,0.8259,0.8259,0.8259,0,0,0.8473,0.845,0.8454,0.8437,0.8421,0.8424,0.8373,0.8379,0.838,0.8326,0.8336,0.8319,0.8298,0.8318,0.8326,0.8306,0.8368,0.8342,0.8348,0.8348,0.8358,0.8368,0.8377,0.8262,0.8261,0.8261,0,0,0.8543,0.8526,0.8543,0.8528,0.8504,0.8479,0.8483,0.8451,0.8437,0.8446,0.8405,0.8406,0.8403,0.8389,0.8382,0.8444,0.8413,0.8444,0.8489,0.8501,0.8509,0.8516,0.8537,0.8545,0.8448,0.8448,0.8448,0,0.8593,0.8595,0.8555,0.8562,0.8556,0.8505,0.8521,0.8509,0.8486,0.8483,0.8461,0.8453,0.8436,0.8451,0.8466,0.8462,0.8465,0.8447,0.8511,0.8518,0.8524,0.8543,0.8551,0.8452,0.8451,0.8451,0.8451,0,0.8657,0.8659,0.8675,0.8653,0.8647,0.866,0.8621,0.8621,0.8594,0.8571,0.858,0.8557,0.8546,0.8548,0.8523,0.8559,0.8547,0.8519,0.8481,0.8538,0.8555,0.8563,0.8457,0.8456,0.8455,0.8454,0,0,0.8771,0.8725,0.8731,0.8719,0.8689,0.869,0.8699,0.8687,0.8687,0.8673,0.8678,0.8675,0.8648,0.864,0.8613,0.8623,0.8672,0.8593,0.8592,0.8608,0.8709,0.873,0.8739,0.8652,0.8653,0.8654,0.871,0,0.8834,0.8846,0.881,0.8831,0.8832,0.8783,0.8791,0.8773,0.8751,0.8748,0.8724,0.8722,0.8687,0.8681,0.869,0.8665,0.8692,0.866,0.8656,0.8657,0.8662,0.8748,0.8771,0.8825,0.8717,0.8718,0.8719,0,0.8909,0.8897,0.8918,0.8885,0.8884,0.8891,0.8876,0.8874,0.8853,0.8836,0.8826,0.8793,0.8799,0.8762,0.877,0.8749,0.8745,0.8732,0.8733,0.8731,0.8691,0.8748,0.8842,0.885,0.873,0.8729,0.8728,0,0.8989,0.8978,0.8988,0.898,0.8942,0.8948,0.8932,0.8909,0.8903,0.889,0.8886,0.8875,0.8868,0.886,0.8825,0.8802,0.8836,0.8796,0.8821,0.8822,0.8831,0.883,0.8925,0.883,0.883,0.8829,0.8829,0,0.9062,0.9077,0.9023,0.903,0.9044,0.9002,0.9017,0.8997,0.8976,0.8977,0.8935,0.8938,0.8892,0.8889,0.8862,0.8871,0.8869,0.8855,0.8847,0.8858,0.886,0.8855,0.885,0.8832,0.8831,0.8831,0.883,0,0.9154,0.9118,0.9126,0.9089,0.9079,0.9092,0.9059,0.9064,0.9038,0.9041,0.9039,0.8999,0.8993,0.8958,0.8944,0.8926,0.8945,0.893,0.8952,0.8947,0.8973,0.8971,0.9067,0.9076,0.8976,0.8977,0.8978,0,0.9203,0.9212,0.9175,0.9172,0.9158,0.9155,0.9149,0.9107,0.9102,0.9077,0.9084,0.9075,0.9065,0.9058,0.9028,0.9017,0.9001,0.9036,0.9,0.9009,0.9,0.9,0.9,0.9043,0.9045,0.9046,0.9047,0,0.9293,0.9274,0.9266,0.9252,0.9245,0.9232,0.9216,0.9217,0.917,0.9167,0.916,0.9152,0.9137,0.9128,0.9111,0.9095,0.9063,0.9058,0.9063,0.9074,0.9085,0.9078,0.8972,0.9056,0.9055,0.9054,0.9054,0.9054,0.9363,0.9369,0.9343,0.9335,0.9318,0.9304,0.9306,0.928,0.9273,0.9257,0.9233,0.9229,0.9205,0.918,0.9166,0.9162,0.9144,0.9151,0.9153,0.9155,0.916,0.9087,0.9159,0.9159,0.9158,0.9158,0.9158,0,0.945,0.943,0.9423,0.9402,0.9396,0.9365,0.9346,0.9342,0.9339,0.9319,0.931,0.9301,0.9291,0.926,0.9247,0.925,0.9235,0.9248,0.9247,0.9243,0.9178,0.9174,0.926,0.926,0.926,0.926,0.926,0.926,0.9494,0.9501,0.948,0.9478,0.9458,0.9453,0.9445,0.9431,0.9415,0.9406,0.9398,0.9377,0.9353,0.9337,0.9327,0.9318,0.9315,0.9332,0.9319,0.9258,0.9248,0.9239,0.9235,0.9332,0.9332,0.9384,0.9384,0.9385]}]]